Location: Newark
(48.1500°N, 2.9667°W)
Time: 19:32:47
(UTC+00:00)

A-11 Canister half - Pass Details

Date: 02 February 2020
Orbit: 1517 x 1683 km, 47.2° (Epoch: 19 February)

Event Time Altitude Azimuth Distance (km) Brightness Sun altitude
Rises 19:16:27 0° 182° (S) 4,820 11.7 -20.9°
Reaches altitude 10° 19:21:00 10° 164° (SSE) 3,806 10.9 -21.6°
Enters shadow 19:25:31 17° 136° (SE) 3,245 10.3 -22.4°
